• In Belarus
  • List of Countries
  • For 7 days
  • Water Temperature
  • Satellite Maps
  • Weather Map
  • Weather Widgets
  • user-avatar
    Login

    Hourly Weather L'Île-Perrot

    Today, 22 March, Friday

    Time Temperature Precipitation Wind Pressure Humidity
    00:00 +1°C° 1.3 mm 3 mps 753 mmHg 93%
    01:00 +2°C° 1.3 mm 2 mps 752 mmHg 93%
    02:00 +2°C° 0.6 mm 2 mps 751 mmHg 93%
    03:00 +2°C° 0.6 mm 2 mps 750 mmHg 93%
    04:00 +3°C° 0.6 mm 1 mps 749 mmHg 92%
    05:00 +2°C° 0.3 mm 2 mps 749 mmHg 92%
    06:00 +2°C° 0.3 mm 2 mps 749 mmHg 92%
    07:00 +1°C° 0.3 mm 3 mps 749 mmHg 91%
    08:00 +1°C° 0.3 mm 3 mps 748 mmHg 90%
    09:00 +2°C° 0.3 mm 3 mps 747 mmHg 88%
    10:00 +3°C° 0.3 mm 3 mps 746 mmHg 86%
    11:00 +3°C° 0.4 mm 3 mps 745 mmHg 86%
    12:00 +3°C° 0.4 mm 4 mps 745 mmHg 85%
    13:00 +3°C° 0.4 mm 4 mps 744 mmHg 84%
    14:00 +3°C° 1.2 mm 3 mps 744 mmHg 88%
    15:00 +3°C° 1.2 mm 2 mps 743 mmHg 91%
    16:00 +4°C° 1.2 mm 1 mps 743 mmHg 94%
    17:00 +3°C° 1.2 mm 2 mps 743 mmHg 92%
    18:00 +2°C° 1.2 mm 3 mps 743 mmHg 89%
    19:00 +1°C° 1.2 mm 4 mps 744 mmHg 87%
    20:00 +1°C° 0.9 mm 5 mps 744 mmHg 83%
    21:00 +1°C° 0.9 mm 6 mps 744 mmHg 80%
    22:00 0°C° 0.9 mm 7 mps 745 mmHg 77%
    23:00 -1°C° 0.5 mm 6 mps 745 mmHg 77%

    Tomorrow, 23 March, Saturday

    Time Temperature Precipitation Wind Pressure Humidity
    00:00 -1°C° 0.5 mm 6 mps 746 mmHg 77%
    01:00 -2°C° 0.5 mm 6 mps 747 mmHg 77%
    02:00 -3°C° 0.6 mm 6 mps 748 mmHg 80%
    03:00 -4°C° 0.6 mm 6 mps 749 mmHg 82%
    04:00 -5°C° 0.6 mm 6 mps 750 mmHg 85%
    05:00 -5°C° 0.4 mm 6 mps 751 mmHg 84%
    06:00 -6°C° 0.4 mm 6 mps 752 mmHg 83%
    07:00 -6°C° 0.4 mm 6 mps 754 mmHg 82%
    08:00 -6°C° 0 mm 6 mps 754 mmHg 78%
    09:00 -7°C° 0 mm 7 mps 755 mmHg 74%
    10:00 -6°C° 0 mm 7 mps 756 mmHg 69%
    11:00 -6°C° 0 mm 7 mps 756 mmHg 67%
    12:00 -4°C° 0 mm 7 mps 757 mmHg 64%
    13:00 -4°C° 0 mm 8 mps 757 mmHg 61%
    14:00 -2°C° 0 mm 7 mps 757 mmHg 60%
    15:00 -2°C° 0 mm 7 mps 757 mmHg 58%
    16:00 -1°C° 0 mm 7 mps 758 mmHg 56%
    17:00 -2°C° 0 mm 6 mps 758 mmHg 58%
    18:00 -3°C° 0 mm 6 mps 759 mmHg 60%
    19:00 -4°C° 0 mm 5 mps 759 mmHg 62%
    20:00 -4°C° 0 mm 5 mps 759 mmHg 63%
    21:00 -4°C° 0 mm 5 mps 760 mmHg 63%
    22:00 -4°C° 0 mm 5 mps 760 mmHg 63%
    23:00 -4°C° 0 mm 6 mps 760 mmHg 66%

    Day after tomorrow, 24 March, Sunday

    Time Temperature Precipitation Wind Pressure Humidity
    00:00 -4°C° 0 mm 6 mps 760 mmHg 68%
    01:00 -5°C° 0 mm 6 mps 760 mmHg 70%
    02:00 -6°C° 0 mm 7 mps 760 mmHg 72%
    03:00 -6°C° 0 mm 7 mps 760 mmHg 74%
    04:00 -6°C° 0 mm 7 mps 760 mmHg 76%
    05:00 -6°C° 0 mm 7 mps 760 mmHg 76%
    06:00 -4°C° 0 mm 7 mps 760 mmHg 75%
    07:00 -4°C° 0 mm 6 mps 760 mmHg 75%
    08:00 -3°C° 0 mm 6 mps 760 mmHg 73%
    09:00 -2°C° 0 mm 6 mps 759 mmHg 71%
    10:00 +1°C° 0 mm 6 mps 759 mmHg 69%
    11:00 +2°C° 0 mm 7 mps 759 mmHg 67%
    12:00 +3°C° 0 mm 7 mps 759 mmHg 66%
    13:00 +4°C° 0 mm 7 mps 758 mmHg 64%
    14:00 +3°C° 0 mm 6 mps 758 mmHg 68%
    15:00 +3°C° 0 mm 5 mps 758 mmHg 71%
    16:00 +4°C° 0 mm 4 mps 757 mmHg 75%
    17:00 +1°C° 0.2 mm 4 mps 758 mmHg 77%
    18:00 0°C° 0.2 mm 4 mps 758 mmHg 80%
    19:00 0°C° 0.2 mm 3 mps 759 mmHg 82%
    20:00 -1°C° 0.3 mm 3 mps 759 mmHg 81%
    21:00 -1°C° 0.3 mm 2 mps 760 mmHg 79%
    22:00 -2°C° 0.3 mm 2 mps 760 mmHg 77%
    23:00 -2°C° 0.1 mm 2 mps 761 mmHg 74%

    25 March, Monday

    Time Temperature Precipitation Wind Pressure Humidity
    00:00 -3°C° 0.1 mm 2 mps 761 mmHg 71%
    01:00 -4°C° 0.1 mm 3 mps 761 mmHg 67%
    02:00 -5°C° 0 mm 3 mps 762 mmHg 65%
    03:00 -6°C° 0 mm 3 mps 762 mmHg 62%
    04:00 -7°C° 0 mm 3 mps 762 mmHg 60%
    05:00 -8°C° 0 mm 3 mps 762 mmHg 58%
    06:00 -8°C° 0 mm 3 mps 763 mmHg 56%
    07:00 -7°C° 0 mm 2 mps 763 mmHg 54%
    08:00 -7°C° 0 mm 2 mps 763 mmHg 50%
    09:00 -6°C° 0 mm 2 mps 764 mmHg 46%
    10:00 -5°C° 0 mm 2 mps 764 mmHg 41%
    11:00 -5°C° 0 mm 3 mps 763 mmHg 40%
    12:00 -4°C° 0 mm 3 mps 763 mmHg 38%
    13:00 -4°C° 0 mm 4 mps 762 mmHg 37%
    14:00 -3°C° 0 mm 4 mps 762 mmHg 37%
    15:00 -4°C° 0 mm 5 mps 762 mmHg 37%
    16:00 -4°C° 0 mm 5 mps 762 mmHg 38%
    17:00 -5°C° 0 mm 5 mps 762 mmHg 41%
    18:00 -5°C° 0 mm 4 mps 763 mmHg 45%
    19:00 -5°C° 0 mm 3 mps 764 mmHg 48%
    20:00 -7°C° 0 mm 4 mps 764 mmHg 48%
    21:00 -7°C° 0 mm 4 mps 765 mmHg 47%
    22:00 -7°C° 0 mm 4 mps 766 mmHg 47%
    23:00 -8°C° 0 mm 4 mps 766 mmHg 46%

    26 March, Tuesday

    Time Temperature Precipitation Wind Pressure Humidity
    00:00 -8°C° 0 mm 4 mps 766 mmHg 45%
    01:00 -8°C° 0 mm 4 mps 767 mmHg 45%
    02:00 -9°C° 0 mm 4 mps 767 mmHg 45%
    03:00 -9°C° 0 mm 4 mps 767 mmHg 45%
    04:00 -10°C° 0 mm 4 mps 768 mmHg 45%
    05:00 -10°C° 0 mm 4 mps 768 mmHg 45%
    06:00 -10°C° 0 mm 4 mps 769 mmHg 45%
    07:00 -10°C° 0 mm 4 mps 770 mmHg 46%
    08:00 -9°C° 0 mm 4 mps 770 mmHg 42%
    09:00 -8°C° 0 mm 3 mps 770 mmHg 39%
    10:00 -7°C° 0 mm 3 mps 771 mmHg 35%
    11:00 -6°C° 0 mm 3 mps 770 mmHg 33%
    12:00 -5°C° 0 mm 3 mps 770 mmHg 30%
    13:00 -4°C° 0 mm 4 mps 770 mmHg 28%
    14:00 -4°C° 0 mm 4 mps 770 mmHg 28%
    15:00 -4°C° 0 mm 4 mps 770 mmHg 29%
    16:00 -4°C° 0 mm 4 mps 770 mmHg 29%
    17:00 -4°C° 0 mm 3 mps 771 mmHg 33%
    18:00 -4°C° 0 mm 2 mps 771 mmHg 37%
    19:00 -4°C° 0 mm 2 mps 772 mmHg 40%
    20:00 -5°C° 0 mm 2 mps 772 mmHg 41%
    21:00 -3°C° 0 mm 1 mps 772 mmHg 41%
    22:00 -3°C° 0 mm 1 mps 773 mmHg 42%
    23:00 -3°C° 0 mm 1 mps 773 mmHg 42%

    27 March, Wednesday

    Time Temperature Precipitation Wind Pressure Humidity
    00:00 -3°C° 0 mm 1 mps 773 mmHg 42%
    01:00 -3°C° 0 mm 1 mps 773 mmHg 42%
    02:00 -4°C° 0 mm 1 mps 773 mmHg 43%
    03:00 -4°C° 0 mm 1 mps 773 mmHg 44%
    04:00 -4°C° 0 mm 1 mps 774 mmHg 45%
    05:00 -4°C° 0 mm 1 mps 774 mmHg 44%
    06:00 -4°C° 0 mm 1 mps 774 mmHg 44%
    07:00 -4°C° 0 mm 1 mps 774 mmHg 44%
    08:00 -4°C° 0 mm 2 mps 774 mmHg 39%
    09:00 -3°C° 0 mm 2 mps 774 mmHg 35%
    10:00 -2°C° 0 mm 2 mps 774 mmHg 31%
    11:00 -1°C° 0 mm 2 mps 773 mmHg 29%
    12:00 +1°C° 0 mm 2 mps 773 mmHg 28%
    13:00 +2°C° 0 mm 3 mps 772 mmHg 26%
    14:00 +2°C° 0 mm 3 mps 772 mmHg 27%
    15:00 +2°C° 0 mm 3 mps 771 mmHg 28%
    16:00 +3°C° 0 mm 3 mps 771 mmHg 28%
    17:00 +2°C° 0 mm 3 mps 771 mmHg 34%
    18:00 +1°C° 0 mm 2 mps 771 mmHg 40%
    19:00 -1°C° 0 mm 2 mps 771 mmHg 46%
    20:00 -1°C° 0 mm 2 mps 771 mmHg 48%
    21:00 -2°C° 0 mm 2 mps 770 mmHg 51%
    22:00 -2°C° 0 mm 2 mps 770 mmHg 54%
    23:00 -2°C° 0 mm 2 mps 770 mmHg 53%
    Show more